This is the latest recevied weather packets stored in our database for station/object OK1FET-15. If no packets are shown the sender has not sent any weather packets the latest 1 day(s).
| Time | Temp. | Humidity | Pressure | Rain* | Wind** | Luminosity | Snow |
|---|---|---|---|---|---|---|---|
| 1777974506 | 31.11° C | 27% | 1006.8 hPa | - | 0 m/s | - | - |
| 1777974198 | 30.56° C | 27% | 1006.9 hPa | - | 0.45 m/s, 59° | - | - |
| 1777973889 | 31.11° C | 26% | 1006.9 hPa | - | 0.45 m/s, 95° | - | - |
| 1777973580 | 30.56° C | 27% | 1007 hPa | - | 0 m/s | - | - |
| 1777973271 | 30.56° C | 28% | 1006.9 hPa | - | 0.45 m/s, 90° | - | - |
| 1777972963 | 30° C | 27% | 1006.9 hPa | - | 0.45 m/s, 79° | - | - |
| 1777972654 | 30° C | 29% | 1006.9 hPa | - | 0.45 m/s, 158° | - | - |
| 1777972345 | 30° C | 28% | 1007 hPa | - | 0.45 m/s, 142° | - | - |
| 1777972037 | 29.44° C | 29% | 1007.1 hPa | - | 0.45 m/s, 158° | - | - |
| 1777971728 | 28.89° C | 29% | 1007.2 hPa | - | 0.45 m/s, 37° | - | - |
| 1777971419 | 29.44° C | 28% | 1007.2 hPa | - | 0.45 m/s, 152° | - | - |
| 1777971111 | 29.44° C | 30% | 1007.3 hPa | - | 0 m/s | - | - |
| 1777970802 | 28.89° C | 31% | 1007.3 hPa | - | 0.45 m/s, 121° | - | - |
| 1777970494 | 28.33° C | 31% | 1007.3 hPa | - | 0.45 m/s, 129° | - | - |
| 1777970185 | 27.78° C | 32% | 1007.4 hPa | - | 0 m/s | - | - |
| 1777969877 | 27.78° C | 31% | 1007.4 hPa | - | 0 m/s | - | - |
| 1777969569 | 27.22° C | 33% | 1007.4 hPa | - | 0 m/s | - | - |
| 1777969260 | 26.67° C | 34% | 1007.4 hPa | - | 0.45 m/s, 103° | - | - |
| 1777968952 | 26.67° C | 34% | 1007.5 hPa | - | 0 m/s | - | - |
| 1777968644 | 26.11° C | 35% | 1007.5 hPa | - | 0.45 m/s, 54° | - | - |
| 1777968335 | 26.11° C | 36% | 1007.6 hPa | - | 0 m/s | - | - |
| 1777968027 | 26.11° C | 37% | 1007.6 hPa | - | 0 m/s | - | - |
| 1777967719 | 25.56° C | 37% | 1007.7 hPa | - | 0 m/s | - | - |
| 1777967411 | 25° C | 38% | 1007.7 hPa | - | 0 m/s | - | - |
| 1777967103 | 25° C | 38% | 1007.7 hPa | - | 0.45 m/s, 128° | - | - |
* Rain since midnight (hover to see other rain measurements)
** Current wind speed in m/s (hover to see current wind gust speed)